User: anonymous   Login
Location: Camp Creek
(33.9000°N, 111.8167°W)
Time: 05:58:14
(UTC-07:00)
Language:

DELTA 2 R/B (1) - Orbit

View from above orbital plane
View from above orbital plane
View from above satellite
View from above satellite

Ground track
Ground track

The orbit data is extracted from the following two-line orbital elements,

1 27665U 03005C   14303.05819042  .00000310  00000-0  15691-3 0  1535
2 27665 039.5759 323.6209 0009006 146.5413 240.6396 14.28237958613470
Epoch (UTC): 30 October 2014 01:23:47
Eccentricity: 0.0009006
inclination: 39.5759°
perigee height: 791 km
apogee height: 804 km
right ascension of ascending node: 323.6209°
argument of perigee: 146.5413°
revolutions per day: 14.28237958
mean anomaly at epoch: 240.6396°
orbit number at epoch: 61347

The dashed part of the orbit path shows where the satellite is in the earth's shadow,  

DLR